M I D A S
Marine Information and Data Acquisition System
Tripno 1716 of the Zeeleeuw from 2009-06-25 07:14:08 to 2009-06-25 13:53:43
Back to CruiseResearch ActivitiesStationsMapUnderway DataData graphs

EquipmentUnitsComments
TimeDGPSUTC
LatitudeDGPSDM.mWGS84
LongitudeDGPSDM.mWGS84
SpeedMeteo Stationm/sRelative wind speed
DirectionMeteo StationdegRelative wind direction
TemperatureMeteo Stationdeg CelciusAir temperature
PressureMeteo StationPaAtmospheric pressure
HumidityMeteo Station%Relative humidity
Missing or incorrect values are displayed as -999
Metereological data collected by the RV Zeeleeuw from 2009-06-25 07:08:44 to 2009-06-25 14:03:05
Time Latitude Longitude Speed Direction Temperature Pressure Humidity
2009-06-25 07:09 51°13.678 2°55.907 1.2 282 20.3 101400 65
2009-06-25 07:10 51°13.694 2°55.825 0.3 286 20.3 101400 65
2009-06-25 07:11 51°13.702 2°55.752 2.3 281 20.4 101410 65
2009-06-25 07:12 51°13.707 2°55.752 2.7 15 20.4 101400 64
2009-06-25 07:13 51°13.721 2°55.734 1.8 21 20.2 101410 65
2009-06-25 07:14 51°13.785 2°55.677 2.5 3 20 101410 65
2009-06-25 07:15 51°13.888 2°55.595 4.4 359 19.9 101410 65
2009-06-25 07:16 51°14.016 2°55.49 2.2 7 19.6 101400 66
2009-06-25 07:17 51°14.155 2°55.38 5.3 356 19.5 101400 67
2009-06-25 07:18 51°14.28 2°55.209 3.1 2 19.4 101400 67
2009-06-25 07:19 51°14.399 2°54.995 6.9 358 19.3 101400 67
2009-06-25 07:20 51°14.546 2°54.791 4.6 359 19.1 101390 69
2009-06-25 07:21 51°14.68 2°54.564 3.4 3 19 101400 68
2009-06-25 07:22 51°14.805 2°54.319 5 355 19 101390 69
2009-06-25 07:23 51°14.926 2°54.073 3.8 355 18.9 101390 71
2009-06-25 07:24 51°15.041 2°53.824 5.1 352 18.9 101390 72
2009-06-25 07:25 51°15.157 2°53.576 4.5 353 18.7 101390 72
2009-06-25 07:26 51°15.275 2°53.325 5.3 354 18.6 101390 73
2009-06-25 07:27 51°15.394 2°53.07 4.2 356 18.5 101390 73
2009-06-25 07:28 51°15.523 2°52.836 6.6 354 18.4 101380 72
2009-06-25 07:29 51°15.691 2°52.755 8.4 348 18.4 101380 72
2009-06-25 07:30 51°15.866 2°52.728 8.7 280 18.4 101390 74
2009-06-25 07:31 51°16.046 2°52.673 7.5 281 18.4 101390 75
2009-06-25 07:32 51°16.225 2°52.607 7.7 277 18.4 101380 76
2009-06-25 07:33 51°16.404 2°52.536 8.2 351 18.3 101380 76
2009-06-25 07:34 51°16.584 2°52.471 8 280 18.3 101390 76
2009-06-25 07:35 51°16.764 2°52.425 7.7 278 18.3 101390 76
2009-06-25 07:36 51°16.938 2°52.407 7.7 286 18.3 101390 75
2009-06-25 07:37 51°17.11 2°52.425 8.2 277 18.3 101390 77
2009-06-25 07:38 51°17.283 2°52.431 8.4 279 18.3 101390 75
2009-06-25 07:39 51°17.455 2°52.443 8.3 284 18.3 101390 77
2009-06-25 07:40 51°17.627 2°52.455 8.5 279 18.3 101380 78
2009-06-25 07:41 51°17.799 2°52.468 8.9 279 18.2 101370 78
2009-06-25 07:42 51°17.968 2°52.501 10.5 277 18.2 101380 79
2009-06-25 07:43 51°18.126 2°52.586 11 281 18.2 101380 81
2009-06-25 07:44 51°18.246 2°52.755 11.9 283 18.2 101380 81
2009-06-25 07:45 51°18.328 2°52.976 11.7 281 18.2 101380 80
2009-06-25 07:46 51°18.358 2°53.23 10.7 280 18.2 101380 80
2009-06-25 07:47 51°18.385 2°53.486 13 280 18.2 101380 81
2009-06-25 07:48 51°18.431 2°53.735 11.5 279 18.2 101380 79
2009-06-25 07:49 51°18.481 2°53.981 12.7 280 18.1 101380 80
2009-06-25 07:50 51°18.534 2°54.224 12.8 284 18.1 101390 79
2009-06-25 07:51 51°18.586 2°54.468 12.4 285 18.1 101380 80
2009-06-25 07:52 51°18.639 2°54.711 12.3 277 18 101390 79
2009-06-25 07:53 51°18.698 2°54.952 11.7 286 18 101390 79
2009-06-25 07:54 51°18.768 2°55.186 13.4 285 18 101380 79
2009-06-25 07:55 51°18.841 2°55.418 13.2 284 18 101380 78
2009-06-25 07:56 51°18.913 2°55.646 12 277 18 101380 80
2009-06-25 07:57 51°18.981 2°55.879 13.1 282 17.9 101370 78
2009-06-25 07:58 51°19.049 2°56.114 13.5 281 18 101380 79
2009-06-25 07:59 51°19.118 2°56.347 12.8 281 18 101380 79
2009-06-25 08:00 51°19.186 2°56.582 11.2 280 18 101380 80
2009-06-25 08:01 51°19.253 2°56.818 14.1 281 18 101380 80
2009-06-25 08:02 51°19.32 2°57.052 11.9 280 18 101380 79
2009-06-25 08:03 51°19.387 2°57.285 11.6 282 17.9 101380 79
2009-06-25 08:04 51°19.455 2°57.517 13.5 286 17.9 101380 78
2009-06-25 08:05 51°19.526 2°57.747 13.2 284 18 101380 77
2009-06-25 08:06 51°19.594 2°57.977 11.1 276 18 101380 78
2009-06-25 08:07 51°19.665 2°58.204 13.5 277 18 101380 79
2009-06-25 08:08 51°19.733 2°58.433 12.9 278 18 101390 79
2009-06-25 08:09 51°19.8 2°58.664 12.9 280 18 101390 79
2009-06-25 08:10 51°19.866 2°58.896 11.2 284 18 101390 78
2009-06-25 08:11 51°19.931 2°59.127 12.8 285 18.1 101390 78
2009-06-25 08:12 51°19.997 2°59.359 12.6 285 18.1 101390 79
2009-06-25 08:13 51°20.066 2°59.586 12.5 285 18.1 101400 80
2009-06-25 08:14 51°20.132 2°59.815 12 277 18.1 101400 77
2009-06-25 08:15 51°20.202 3°0.041 13.1 284 18.1 101390 78
2009-06-25 08:16 51°20.269 3°0.271 11.9 285 18.1 101400 78
2009-06-25 08:17 51°20.337 3°0.5 12 283 18.1 101400 78
2009-06-25 08:18 51°20.405 3°0.727 11.7 277 18.1 101400 76
2009-06-25 08:19 51°20.471 3°0.953 13.5 281 18.1 101390 77
2009-06-25 08:20 51°20.538 3°1.18 13 285 18.2 101390 76
2009-06-25 08:21 51°20.592 3°1.416 11.2 276 18.2 101390 75
2009-06-25 08:22 51°20.611 3°1.665 10.3 276 18.2 101390 76
2009-06-25 08:23 51°20.623 3°1.918 12 276 18.3 101400 75
2009-06-25 08:24 51°20.64 3°2.17 10.6 280 18.3 101400 75
2009-06-25 08:25 51°20.66 3°2.421 12.2 277 18.4 101400 76
2009-06-25 08:26 51°20.68 3°2.672 12 278 18.4 101400 75
2009-06-25 08:27 51°20.698 3°2.922 10.8 285 18.4 101400 75
2009-06-25 08:28 51°20.712 3°3.171 11.3 276 18.4 101400 75
2009-06-25 08:29 51°20.74 3°3.416 11 279 18.4 101390 76
2009-06-25 08:30 51°20.774 3°3.657 12.1 280 18.4 101390 76
2009-06-25 08:31 51°20.808 3°3.899 11.3 278 18.4 101390 75
2009-06-25 08:32 51°20.842 3°4.146 11.2 280 18.4 101390 76
2009-06-25 08:33 51°20.876 3°4.394 11.1 279 18.4 101390 76
2009-06-25 08:34 51°20.912 3°4.641 11.2 281 18.4 101390 76
2009-06-25 08:35 51°20.948 3°4.891 12.1 285 18.4 101390 76
2009-06-25 08:36 51°20.98 3°5.143 10.8 280 18.4 101390 76
2009-06-25 08:37 51°21.013 3°5.393 11.3 279 18.5 101400 76
2009-06-25 08:38 51°21.049 3°5.644 12.2 281 18.5 101380 75
2009-06-25 08:39 51°21.081 3°5.894 11.2 278 18.5 101390 75
2009-06-25 08:40 51°21.102 3°6.147 11.8 281 18.5 101390 74
2009-06-25 08:41 51°21.123 3°6.402 10.9 281 18.6 101390 75
2009-06-25 08:42 51°21.148 3°6.656 11 281 18.6 101390 73
2009-06-25 08:43 51°21.175 3°6.909 10.6 279 18.6 101390 74
2009-06-25 08:44 51°21.218 3°7.155 11.7 281 18.7 101390 74
2009-06-25 08:45 51°21.271 3°7.398 11.8 276 18.7 101400 75
2009-06-25 08:46 51°21.325 3°7.64 11.7 285 18.7 101390 74
2009-06-25 08:47 51°21.382 3°7.878 11.8 281 18.7 101380 73
2009-06-25 08:48 51°21.436 3°8.116 12 277 18.7 101380 75
2009-06-25 08:49 51°21.488 3°8.359 10.2 282 18.7 101390 75
2009-06-25 08:50 51°21.534 3°8.566 8.3 281 18.7 101390 74
2009-06-25 08:51 51°21.569 3°8.626 6.1 278 18.7 101390 75
2009-06-25 08:52 51°21.618 3°8.552 4.4 7 18.7 101390 75
2009-06-25 08:53 51°21.662 3°8.425 5.3 3 18.5 101390 76
2009-06-25 08:54 51°21.706 3°8.349 6.4 353 18.4 101390 75
2009-06-25 08:55 51°21.761 3°8.312 6.5 348 18.4 101390 75
2009-06-25 08:56 51°21.824 3°8.283 7.2 348 18.3 101390 76
2009-06-25 08:57 51°21.887 3°8.262 6.4 353 18.3 101390 76
2009-06-25 08:58 51°21.951 3°8.229 6.9 282 18.3 101390 74
2009-06-25 08:59 51°22.005 3°8.242 7.3 284 18.4 101390 76
2009-06-25 09:00 51°22.05 3°8.287 6.5 280 18.6 101390 75
2009-06-25 09:01 51°22.088 3°8.359 6.9 278 18.7 101390 73
2009-06-25 09:02 51°22.098 3°8.455 7.7 285 18.8 101380 72
2009-06-25 09:03 51°22.09 3°8.559 6.6 278 18.9 101390 74
2009-06-25 09:04 51°22.056 3°8.655 7.2 28 18.9 101390 74
2009-06-25 09:05 51°21.998 3°8.723 5.8 283 18.9 101390 73
2009-06-25 09:06 51°21.927 3°8.766 4.9 282 19 101390 74
2009-06-25 09:07 51°21.852 3°8.782 4.7 278 19.1 101400 74
2009-06-25 09:08 51°21.775 3°8.769 1.9 283 19.2 101400 74
2009-06-25 09:09 51°21.707 3°8.719 2.8 76 19.3 101400 74
2009-06-25 09:10 51°21.647 3°8.649 2.7 75 19.3 101400 73
2009-06-25 09:11 51°21.599 3°8.57 2.2 27 19.2 101390 74
2009-06-25 09:12 51°21.561 3°8.489 3.7 44 19.2 101390 73
2009-06-25 09:13 51°21.531 3°8.404 3.5 39 19.1 101390 73
2009-06-25 09:14 51°21.507 3°8.314 4.3 36 18.9 101390 75
2009-06-25 09:15 51°21.483 3°8.216 4 44 18.9 101390 74
2009-06-25 09:16 51°21.451 3°8.119 4.1 83 18.8 101390 73
2009-06-25 09:17 51°21.413 3°8.022 2.6 83 18.7 101390 73
2009-06-25 09:18 51°21.373 3°7.926 4.3 82 18.7 101390 72
2009-06-25 09:19 51°21.34 3°7.823 5.1 42 18.8 101380 72
2009-06-25 09:20 51°21.319 3°7.716 4.9 32 18.8 101380 74
2009-06-25 09:21 51°21.311 3°7.619 5.5 28 18.8 101380 74
2009-06-25 09:22 51°21.307 3°7.529 5.6 28 18.8 101380 73
2009-06-25 09:23 51°21.316 3°7.438 6.8 9 18.8 101380 73
2009-06-25 09:24 51°21.341 3°7.389 6.6 279 18.8 101370 73
2009-06-25 09:25 51°21.36 3°7.39 7.8 279 18.8 101370 71
2009-06-25 09:26 51°21.366 3°7.404 6.1 279 19 101370 72
2009-06-25 09:27 51°21.372 3°7.416 7.2 283 19.1 101360 70
2009-06-25 09:28 51°21.381 3°7.423 6.5 281 19.2 101370 70
2009-06-25 09:29 51°21.393 3°7.441 8.4 284 19.2 101360 69
2009-06-25 09:30 51°21.455 3°7.562 10.3 280 19.3 101360 70
2009-06-25 09:31 51°21.555 3°7.758 11.9 283 19.4 101350 70
2009-06-25 09:32 51°21.65 3°7.97 10.5 277 19.3 101350 69
2009-06-25 09:33 51°21.725 3°8.199 11.6 280 19.4 101360 70
2009-06-25 09:34 51°21.811 3°8.418 11.6 282 19.4 101350 70
2009-06-25 09:35 51°21.938 3°8.578 10.8 281 19.3 101350 70
2009-06-25 09:36 51°22.072 3°8.736 11.6 283 19.3 101350 71
2009-06-25 09:37 51°22.199 3°8.913 11.5 282 19.2 101350 71
2009-06-25 09:38 51°22.312 3°9.109 10.9 283 19.2 101350 74
2009-06-25 09:39 51°22.406 3°9.326 9.3 279 19.1 101350 74
2009-06-25 09:40 51°22.483 3°9.565 9.9 276 19.2 101350 76
2009-06-25 09:41 51°22.553 3°9.813 10.2 281 19.2 101340 76
2009-06-25 09:42 51°22.621 3°10.062 9.5 281 19.2 101350 76
2009-06-25 09:43 51°22.667 3°10.324 9.3 284 19.2 101350 76
2009-06-25 09:44 51°22.692 3°10.591 9.7 279 19.2 101350 77
2009-06-25 09:45 51°22.716 3°10.854 10.7 282 19.1 101350 77
2009-06-25 09:46 51°22.735 3°11.118 9.8 283 19.2 101350 75
2009-06-25 09:47 51°22.727 3°11.384 9 280 19.2 101350 75
2009-06-25 09:48 51°22.719 3°11.648 10 286 19.2 101350 75
2009-06-25 09:49 51°22.725 3°11.912 10.6 286 19.2 101350 75
2009-06-25 09:50 51°22.737 3°12.175 9.4 280 19.2 101350 72
2009-06-25 09:51 51°22.767 3°12.431 11.1 324 19.2 101350 73
2009-06-25 09:52 51°22.829 3°12.676 10.8 322 19.2 101340 73
2009-06-25 09:53 51°22.893 3°12.922 9 279 19.2 101350 74
2009-06-25 09:54 51°22.955 3°13.171 9.3 324 19.1 101360 74
2009-06-25 09:55 51°23.019 3°13.418 8.8 280 19.2 101350 71
2009-06-25 09:56 51°23.081 3°13.668 9.3 279 19.2 101350 71
2009-06-25 09:57 51°23.143 3°13.917 10.1 323 19.3 101350 70
2009-06-25 09:58 51°23.202 3°14.169 9.2 278 19.3 101350 73
2009-06-25 09:59 51°23.258 3°14.422 8.6 319 19.3 101360 75
2009-06-25 10:00 51°23.315 3°14.671 8.2 321 19.2 101350 77
2009-06-25 10:01 51°23.374 3°14.924 9.3 284 19.2 101350 77
2009-06-25 10:02 51°23.437 3°15.177 9.2 277 19.1 101350 78
2009-06-25 10:03 51°23.501 3°15.429 9.8 280 19.1 101350 77
2009-06-25 10:04 51°23.56 3°15.682 8.4 283 19.1 101350 74
2009-06-25 10:05 51°23.622 3°15.938 8.7 279 19.2 101350 75
2009-06-25 10:06 51°23.629 3°16.209 7.4 315 19.2 101350 75
2009-06-25 10:07 51°23.571 3°16.474 7.9 282 19.2 101350 76
2009-06-25 10:08 51°23.507 3°16.734 7.6 28 19.2 101350 77
2009-06-25 10:09 51°23.463 3°17.006 7.3 29 19.2 101350 77
2009-06-25 10:10 51°23.432 3°17.286 8.2 279 19.1 101350 76
2009-06-25 10:11 51°23.398 3°17.567 7.5 278 19.2 101350 74
2009-06-25 10:12 51°23.411 3°17.837 9.1 285 19.2 101340 76
2009-06-25 10:13 51°23.506 3°18.076 8.9 285 19.3 101350 76
2009-06-25 10:14 51°23.585 3°18.33 9.3 279 19.3 101340 76
2009-06-25 10:15 51°23.633 3°18.605 9.3 279 19.3 101350 75
2009-06-25 10:16 51°23.679 3°18.883 9.2 283 19.4 101340 75
2009-06-25 10:17 51°23.723 3°19.164 9.1 282 19.5 101340 76
2009-06-25 10:18 51°23.769 3°19.448 9.1 278 19.5 101340 75
2009-06-25 10:19 51°23.82 3°19.731 9 282 19.5 101350 75
2009-06-25 10:20 51°23.874 3°20.014 8.6 282 19.5 101340 74
2009-06-25 10:21 51°23.926 3°20.302 8.8 279 19.6 101340 75
2009-06-25 10:22 51°24.033 3°20.535 10.7 285 19.6 101340 75
2009-06-25 10:23 51°24.195 3°20.69 9 279 19.5 101350 75
2009-06-25 10:24 51°24.355 3°20.855 10.2 282 19.5 101340 76
2009-06-25 10:25 51°24.512 3°21.029 10.8 281 19.6 101340 75
2009-06-25 10:26 51°24.662 3°21.218 12.1 283 19.7 101330 74
2009-06-25 10:27 51°24.812 3°21.411 11.6 280 19.7 101340 73
2009-06-25 10:28 51°24.961 3°21.603 12.1 285 19.7 101330 73
2009-06-25 10:29 51°25.112 3°21.791 12.1 282 19.8 101340 71
2009-06-25 10:30 51°25.215 3°22.025 9.4 277 19.8 101340 72
2009-06-25 10:31 51°25.17 3°22.265 7.5 283 20 101340 72
2009-06-25 10:32 51°25.037 3°22.251 0.5 277 20 101350 73
2009-06-25 10:33 51°24.96 3°22.019 2.1 358 20.1 101360 71
2009-06-25 10:34 51°24.906 3°21.736 1.7 358 20 101360 69
2009-06-25 10:35 51°24.82 3°21.466 1.8 360 20 101360 71
2009-06-25 10:36 51°24.723 3°21.205 1.7 358 20 101360 71
2009-06-25 10:37 51°24.648 3°20.929 2.3 -999 20 101360 72
2009-06-25 10:38 51°24.592 3°20.644 2.5 4 19.9 101350 72
2009-06-25 10:39 51°24.545 3°20.353 3.3 1 19.8 101350 72
2009-06-25 10:40 51°24.509 3°20.056 3.8 359 19.8 101350 73
2009-06-25 10:41 51°24.496 3°19.754 4.1 2 19.8 101350 74
2009-06-25 10:42 51°24.498 3°19.45 4.7 1 19.7 101350 74
2009-06-25 10:43 51°24.51 3°19.145 4.5 357 19.7 101350 74
2009-06-25 10:44 51°24.521 3°18.839 4.1 3 19.6 101350 76
2009-06-25 10:45 51°24.539 3°18.534 5.1 2 19.6 101350 74
2009-06-25 10:46 51°24.577 3°18.238 6.9 354 19.7 101350 76
2009-06-25 10:47 51°24.623 3°17.942 6 356 19.6 101340 76
2009-06-25 10:48 51°24.67 3°17.644 6 355 19.5 101340 77
2009-06-25 10:49 51°24.725 3°17.348 7.6 354 19.4 101340 78
2009-06-25 10:50 51°24.779 3°17.056 7.4 354 19.3 101340 80
2009-06-25 10:51 51°24.831 3°16.764 6.1 355 19.1 101340 81
2009-06-25 10:52 51°24.883 3°16.469 8.2 357 19 101340 81
2009-06-25 10:53 51°24.936 3°16.184 7 359 18.8 101340 82
2009-06-25 10:54 51°24.99 3°15.899 6.8 359 18.7 101330 80
2009-06-25 10:55 51°25.041 3°15.613 8.1 360 18.7 101340 79
2009-06-25 10:56 51°25.096 3°15.327 7.1 358 18.8 101340 80
2009-06-25 10:57 51°25.146 3°15.038 7.6 -999 18.7 101330 79
2009-06-25 10:58 51°25.194 3°14.749 7.6 1 18.7 101330 79
2009-06-25 10:59 51°25.23 3°14.455 7.7 1 18.7 101330 79
2009-06-25 11:00 51°25.255 3°14.158 6.9 2 18.7 101330 80
2009-06-25 11:01 51°25.271 3°13.86 7.2 358 18.5 101340 80
2009-06-25 11:02 51°25.283 3°13.561 7.3 1 18.5 101340 82
2009-06-25 11:03 51°25.295 3°13.263 7.7 -999 18.4 101330 83
2009-06-25 11:04 51°25.308 3°12.965 7.7 360 18.3 101340 82
2009-06-25 11:05 51°25.321 3°12.667 7 1 18.2 101330 84
2009-06-25 11:06 51°25.334 3°12.37 5.8 4 18.1 101340 83
2009-06-25 11:07 51°25.345 3°12.073 6.9 4 18.1 101330 83
2009-06-25 11:08 51°25.351 3°11.775 5.1 4 18.1 101340 83
2009-06-25 11:09 51°25.329 3°11.474 5.7 7 18.1 101340 82
2009-06-25 11:10 51°25.276 3°11.178 6.3 11 18.1 101340 83
2009-06-25 11:11 51°25.216 3°10.884 5.9 8 18.1 101350 83
2009-06-25 11:12 51°25.151 3°10.59 4.1 7 18.1 101340 83
2009-06-25 11:13 51°25.076 3°10.302 5 15 18.1 101350 83
2009-06-25 11:14 51°25.002 3°10.013 4.9 10 18.1 101350 82
2009-06-25 11:15 51°24.93 3°9.723 4.8 10 18 101340 82
2009-06-25 11:16 51°24.862 3°9.43 5.7 10 18.1 101340 83
2009-06-25 11:17 51°24.808 3°9.131 6.2 9 18.1 101340 83
2009-06-25 11:18 51°24.786 3°8.825 6.1 3 18.1 101330 82
2009-06-25 11:19 51°24.786 3°8.517 6.1 6 18.1 101330 83
2009-06-25 11:20 51°24.785 3°8.207 5.8 7 18 101330 83
2009-06-25 11:21 51°24.782 3°7.894 5.3 5 17.9 101320 83
2009-06-25 11:22 51°24.778 3°7.582 6 5 17.9 101320 84
2009-06-25 11:23 51°24.772 3°7.268 7.4 7 17.8 101320 83
2009-06-25 11:24 51°24.765 3°6.951 5.9 7 17.8 101320 83
2009-06-25 11:25 51°24.755 3°6.633 6.9 8 17.7 101320 84
2009-06-25 11:26 51°24.746 3°6.318 5.2 6 17.7 101330 82
2009-06-25 11:27 51°24.753 3°6.009 7 3 17.7 101320 83
2009-06-25 11:28 51°24.839 3°5.752 10.1 351 17.7 101310 84
2009-06-25 11:29 51°24.994 3°5.644 11.7 282 17.7 101300 83
2009-06-25 11:30 51°25.164 3°5.61 12.1 285 17.8 101310 83
2009-06-25 11:31 51°25.334 3°5.583 12.5 282 17.9 101300 83
2009-06-25 11:32 51°25.5 3°5.597 11.9 280 18 101310 82
2009-06-25 11:33 51°25.659 3°5.676 13.7 281 18 101310 81
2009-06-25 11:34 51°25.784 3°5.842 13.3 277 18 101300 82
2009-06-25 11:35 51°25.842 3°6.098 11.4 279 18 101290 83
2009-06-25 11:36 51°25.858 3°6.384 11.1 280 17.9 101280 82
2009-06-25 11:37 51°25.868 3°6.675 13.5 285 17.9 101280 82
2009-06-25 11:38 51°25.893 3°6.962 13.4 283 17.9 101270 83
2009-06-25 11:39 51°25.922 3°7.247 11.5 284 18 101280 81
2009-06-25 11:40 51°25.95 3°7.534 11.5 282 18 101280 82
2009-06-25 11:41 51°25.977 3°7.821 14.2 278 18 101280 81
2009-06-25 11:42 51°26.005 3°8.107 14.3 283 18 101280 81
2009-06-25 11:43 51°26.033 3°8.395 12.2 280 18 101270 80
2009-06-25 11:44 51°26.06 3°8.684 11.5 277 18 101280 80
2009-06-25 11:45 51°26.089 3°8.974 12.2 277 18.1 101270 80
2009-06-25 11:46 51°26.119 3°9.264 12.2 280 18.1 101270 79
2009-06-25 11:47 51°26.147 3°9.558 14.2 279 18.2 101260 80
2009-06-25 11:48 51°26.176 3°9.853 11.5 278 18.2 101270 80
2009-06-25 11:49 51°26.256 3°10.107 13.9 281 18.2 101260 78
2009-06-25 11:50 51°26.38 3°10.303 12.8 280 18.3 101290 79
2009-06-25 11:51 51°26.508 3°10.497 13.9 285 18.2 101280 78
2009-06-25 11:52 51°26.636 3°10.703 12 277 18.2 101280 80
2009-06-25 11:53 51°26.757 3°10.904 13 279 18.2 101270 80
2009-06-25 11:54 51°26.879 3°11.111 14.4 280 18.1 101280 81
2009-06-25 11:55 51°27 3°11.317 13.2 279 18.1 101280 80
2009-06-25 11:56 51°27.12 3°11.524 12.3 282 18.1 101280 81
2009-06-25 11:57 51°27.241 3°11.733 14.3 280 18.1 101280 80
2009-06-25 11:58 51°27.361 3°11.942 12.3 279 18.1 101270 81
2009-06-25 11:59 51°27.509 3°12.06 14.9 280 18 101280 81
2009-06-25 12:00 51°27.66 3°11.993 12.6 278 18 101280 80
2009-06-25 12:01 51°27.729 3°11.751 8.3 7 17.8 101290 81
2009-06-25 12:02 51°27.722 3°11.449 7.1 15 17.6 101300 82
2009-06-25 12:03 51°27.631 3°11.169 4.2 26 17.6 101310 82
2009-06-25 12:04 51°27.533 3°10.887 5.2 17 17.6 101300 83
2009-06-25 12:05 51°27.446 3°10.602 4.5 16 17.6 101300 82
2009-06-25 12:06 51°27.359 3°10.314 5.7 19 17.6 101300 83
2009-06-25 12:07 51°27.268 3°10.03 6 19 17.6 101300 82
2009-06-25 12:08 51°27.179 3°9.742 5 17 17.5 101300 82
2009-06-25 12:09 51°27.089 3°9.455 4.8 17 17.6 101300 82
2009-06-25 12:10 51°27 3°9.168 4.2 21 17.5 101300 83
2009-06-25 12:11 51°26.91 3°8.88 5.1 17 17.5 101300 83
2009-06-25 12:12 51°26.821 3°8.59 5.6 17 17.5 101300 82
2009-06-25 12:13 51°26.733 3°8.301 5.3 24 17.5 101300 82
2009-06-25 12:14 51°26.643 3°8.014 5.3 23 17.5 101300 82
2009-06-25 12:15 51°26.56 3°7.724 5.7 18 17.5 101290 82
2009-06-25 12:16 51°26.491 3°7.426 5.7 16 17.5 101290 82
2009-06-25 12:17 51°26.44 3°7.122 7.6 14 17.5 101290 82
2009-06-25 12:18 51°26.4 3°6.814 8.4 11 17.4 101280 82
2009-06-25 12:19 51°26.364 3°6.505 6.8 8 17.4 101280 82
2009-06-25 12:20 51°26.323 3°6.198 6.5 13 17.4 101280 83
2009-06-25 12:21 51°26.281 3°5.889 6.7 12 17.4 101280 82
2009-06-25 12:22 51°26.238 3°5.582 7.3 12 17.4 101280 82
2009-06-25 12:23 51°26.191 3°5.276 6.8 15 17.4 101280 83
2009-06-25 12:24 51°26.117 3°4.981 5.6 17 17.4 101280 81
2009-06-25 12:25 51°26.025 3°4.694 4.1 14 17.4 101280 82
2009-06-25 12:26 51°25.932 3°4.407 4.9 21 17.4 101280 81
2009-06-25 12:27 51°25.843 3°4.124 5.9 21 17.4 101290 81
2009-06-25 12:28 51°25.755 3°3.843 4.3 22 17.4 101290 82
2009-06-25 12:29 51°25.671 3°3.561 5.4 20 17.4 101290 81
2009-06-25 12:30 51°25.587 3°3.278 4.8 16 17.4 101280 81
2009-06-25 12:31 51°25.503 3°2.996 4.6 16 17.4 101290 81
2009-06-25 12:32 51°25.419 3°2.715 4.5 26 17.4 101280 82
2009-06-25 12:33 51°25.296 3°2.48 1.2 80 17.5 101290 82
2009-06-25 12:34 51°25.118 3°2.339 2.3 83 17.5 101280 82
2009-06-25 12:35 51°24.925 3°2.246 2.1 277 17.6 101290 82
2009-06-25 12:36 51°24.726 3°2.201 4 283 17.7 101280 82
2009-06-25 12:37 51°24.525 3°2.198 3.5 283 17.8 101280 81
2009-06-25 12:38 51°24.323 3°2.199 2.9 280 18 101280 81
2009-06-25 12:39 51°24.127 3°2.199 2.4 286 18.1 101280 80
2009-06-25 12:40 51°23.931 3°2.196 2.2 283 18.1 101280 80
2009-06-25 12:41 51°23.751 3°2.107 0.7 40 18.2 101270 79
2009-06-25 12:42 51°23.593 3°1.951 2 34 18.3 101270 78
2009-06-25 12:43 51°23.456 3°1.759 3.7 27 18.2 101270 77
2009-06-25 12:44 51°23.349 3°1.533 3.8 26 18.2 101270 79
2009-06-25 12:45 51°23.241 3°1.303 3.9 34 18.1 101260 79
2009-06-25 12:46 51°23.117 3°1.09 3.9 38 18 101260 79
2009-06-25 12:47 51°22.986 3°0.885 2.6 28 17.9 101260 79
2009-06-25 12:48 51°22.855 3°0.68 3.6 42 17.9 101260 80
2009-06-25 12:49 51°22.722 3°0.474 3.3 38 17.9 101260 79
2009-06-25 12:50 51°22.592 3°0.268 1.9 25 17.9 101250 80
2009-06-25 12:51 51°22.465 3°0.065 3.5 39 17.8 101250 79
2009-06-25 12:52 51°22.337 2°59.869 3.9 38 17.9 101250 80
2009-06-25 12:53 51°22.212 2°59.671 2.9 30 17.9 101250 80
2009-06-25 12:54 51°22.084 2°59.474 2.8 31 17.9 101250 79
2009-06-25 12:55 51°21.959 2°59.274 2.7 41 17.9 101250 79
2009-06-25 12:56 51°21.834 2°59.073 2.9 36 17.9 101250 80
2009-06-25 12:57 51°21.71 2°58.868 2.6 35 17.9 101250 79
2009-06-25 12:58 51°21.587 2°58.659 2.8 31 17.9 101250 78
2009-06-25 12:59 51°21.463 2°58.452 3.6 37 17.9 101250 79
2009-06-25 13:00 51°21.339 2°58.246 3 28 17.9 101240 80
2009-06-25 13:01 51°21.227 2°58.027 4.2 26 17.9 101240 79
2009-06-25 13:02 51°21.119 2°57.803 4 23 17.9 101240 80
2009-06-25 13:03 51°21.012 2°57.583 4.5 35 17.9 101250 78
2009-06-25 13:04 51°20.904 2°57.367 4.9 28 17.9 101250 79
2009-06-25 13:05 51°20.8 2°57.146 3.5 30 17.9 101250 79
2009-06-25 13:06 51°20.694 2°56.928 5.2 34 18 101250 80
2009-06-25 13:07 51°20.588 2°56.71 4 33 17.9 101250 79
2009-06-25 13:08 51°20.481 2°56.491 4.6 29 18 101240 79
2009-06-25 13:09 51°20.374 2°56.271 4 36 18 101240 80
2009-06-25 13:10 51°20.269 2°56.056 4.4 28 18 101240 79
2009-06-25 13:11 51°20.168 2°55.843 3.9 28 18 101240 79
2009-06-25 13:12 51°20.066 2°55.629 4.5 37 18 101240 79
2009-06-25 13:13 51°19.961 2°55.42 4.5 30 18 101240 79
2009-06-25 13:14 51°19.852 2°55.209 3.7 42 18 101240 79
2009-06-25 13:15 51°19.745 2°55.005 4.2 28 18 101240 78
2009-06-25 13:16 51°19.636 2°54.797 3.9 35 18 101240 79
2009-06-25 13:17 51°19.521 2°54.599 3.1 35 18 101240 79
2009-06-25 13:18 51°19.408 2°54.401 3.1 39 18 101230 78
2009-06-25 13:19 51°19.296 2°54.202 3.1 25 18 101240 79
2009-06-25 13:20 51°19.184 2°54.003 4 29 18.1 101230 80
2009-06-25 13:21 51°19.071 2°53.801 3.5 30 18.1 101240 78
2009-06-25 13:22 51°18.961 2°53.598 4.4 34 18.1 101230 78
2009-06-25 13:23 51°18.85 2°53.4 3.8 31 18.1 101230 78
2009-06-25 13:24 51°18.738 2°53.203 3.7 37 18.1 101230 78
2009-06-25 13:25 51°18.628 2°53.007 4 34 18.1 101230 78
2009-06-25 13:26 51°18.517 2°52.806 3.3 38 18.1 101220 78
2009-06-25 13:27 51°18.406 2°52.602 2.7 36 18.2 101220 79
2009-06-25 13:28 51°18.295 2°52.404 3.7 32 18.2 101220 79
2009-06-25 13:29 51°18.174 2°52.224 2.5 43 18.2 101220 79
2009-06-25 13:30 51°18.026 2°52.091 3 81 18.2 101220 79
2009-06-25 13:31 51°17.872 2°51.978 2 81 18.4 101220 78
2009-06-25 13:32 51°17.712 2°51.882 2.2 77 18.4 101220 77
2009-06-25 13:33 51°17.543 2°51.906 8.6 287 18.5 101210 76
2009-06-25 13:34 51°17.383 2°52.062 7.4 277 18.6 101210 78
2009-06-25 13:35 51°17.225 2°52.227 9.1 284 18.8 101210 77
2009-06-25 13:36 51°17.064 2°52.383 8.8 278 18.8 101210 76
2009-06-25 13:37 51°16.901 2°52.534 8.3 280 18.8 101220 77
2009-06-25 13:38 51°16.735 2°52.677 8 285 18.8 101210 76
2009-06-25 13:39 51°16.57 2°52.825 8.5 280 18.8 101200 75
2009-06-25 13:40 51°16.403 2°52.967 9.7 282 18.8 101200 77
2009-06-25 13:41 51°16.235 2°53.111 7.7 279 18.8 101200 77
2009-06-25 13:42 51°16.067 2°53.253 7 279 18.7 101200 77
2009-06-25 13:43 51°15.9 2°53.39 6.6 282 18.7 101200 77
2009-06-25 13:44 51°15.729 2°53.509 7.3 279 18.7 101190 78
2009-06-25 13:45 51°15.56 2°53.641 8.5 284 18.6 101190 77
2009-06-25 13:46 51°15.393 2°53.79 9 280 18.6 101180 78
2009-06-25 13:47 51°15.231 2°53.949 10.7 284 18.7 101190 77
2009-06-25 13:48 51°15.072 2°54.113 9.7 285 18.7 101180 77
2009-06-25 13:49 51°14.913 2°54.273 9 279 18.7 101180 77
2009-06-25 13:50 51°14.76 2°54.453 8.5 282 18.7 101180 77
2009-06-25 13:51 51°14.604 2°54.632 7.1 279 18.7 101170 78
2009-06-25 13:52 51°14.462 2°54.845 9.1 278 18.8 101170 78
2009-06-25 13:53 51°14.339 2°55.088 6.9 281 18.8 101160 78
2009-06-25 13:54 51°14.239 2°55.279 7.1 285 18.9 101170 78
2009-06-25 13:55 51°14.131 2°55.402 6.1 284 18.9 101180 77
2009-06-25 13:56 51°14.005 2°55.492 5.4 281 19 101180 78
2009-06-25 13:57 51°13.888 2°55.578 3.5 279 19.1 101180 77
2009-06-25 13:58 51°13.793 2°55.656 3.6 283 19.2 101180 76
2009-06-25 13:59 51°13.731 2°55.751 6.4 280 19.2 101180 74
2009-06-25 14:00 51°13.691 2°55.847 3.4 285 19.2 101170 73
2009-06-25 14:01 51°13.668 2°55.934 3.2 279 19.3 101170 74
2009-06-25 14:02 51°13.662 2°55.956 1.9 281 19.5 101180 73